DW3319 Weather Reports


time (UTC)temp
C
wind
direction
speed
KPH
gust
KPH
rain 1hr
cm
rain 24hr
cm
rain mn
cm
humidity
%
barometer
mb
20260505074543 18 0 1.6 6.4 0.00 0.00 0.00 95 1010.7
20260505073052 18 144 1.6 4.8 0.00 0.00 0.00 95 1011.0
20260505071544 18 93 1.6 4.8 0.00 0.00 0.00 95 1010.8
20260505070051 18 123 1.6 4.8 0.00 0.00 0.00 94 1011.1
20260505064543 18 144 1.6 9.7 0.00 0.00 0.00 94 1011.2
20260505063106 18 129 3.2 8.0 0.00 0.00 0.00 95 1011.5
20260505061543 18 123 1.6 8.0 0.00 0.00 0.00 95 1011.6
20260505060042 18 124 1.6 4.8 0.00 0.00 0.00 94 1011.7
20260505054542 18 129 1.6 8.0 0.00 0.00 0.00 94 1011.7
20260505053049 18 93 1.6 4.8 0.00 0.00 0.00 93 1011.9
20260505051544 18 115 1.6 6.4 0.00 0.00 0.00 93 1012.1
20260505041550 19 108 3.2 11.3 0.00 0.00 0.00 91 1012.1
20260505040053 19 173 3.2 11.3 0.00 0.00 0.00 91 1012.5
20260505034544 20 142 3.2 9.7 0.00 0.00 0.00 90 1012.8
20260505033041 20 157 4.8 12.9 0.00 0.00 0.00 89 1012.7
20260505031543 20 164 4.8 9.7 0.00 0.00 0.00 89 1012.4
20260505030045 20 150 3.2 9.7 0.00 0.00 0.00 88 1012.5
20260505024556 20 165 3.2 12.9 0.00 0.00 0.00 87 1012.5
20260505023044 20 153 4.8 14.5 0.00 0.00 0.00 86 1012.5
20260505021544 21 162 6.4 16.1 0.00 0.00 0.00 85 1012.3
20260505020041 21 173 6.4 16.1 0.00 0.00 0.00 85 1012.1
20260505014603 21 149 6.4 16.1 0.00 0.00 0.00 84 1012.0
20260505013046 21 162 9.7 22.5 0.00 0.00 0.00 83 1012.0
20260505011554 21 175 9.7 17.7 0.00 0.00 0.00 83 1012.1
20260505010044 21 157 8.0 19.3 0.00 0.00 0.00 82 1012.2
20260505004543 21 150 6.4 19.3 0.00 0.00 0.00 81 1012.2
20260505003044 22 138 9.7 19.3 0.00 0.00 0.00 80 1012.2
20260505001544 22 124 9.7 17.7 0.00 0.00 0.00 79 1012.3
20260505000057 22 155 3.2 19.3 0.00 0.00 0.00 78 1012.6
20260504234548 22 171 4.8 16.1 0.00 0.00 0.00 77 1012.7
20260504233104 23 115 8.0 25.7 0.00 0.00 0.00 76 1012.7
20260504231538 23 163 8.0 22.5 0.00 0.00 0.00 73 1012.7
20260504230044 23 171 8.0 24.1 0.00 0.00 0.00 73 1012.9
20260504224548 24 232 4.8 25.7 0.00 0.00 0.00 72 1013.0
20260504223055 24 265 11.3 24.1 0.00 0.00 0.00 73 1013.0
20260504221539 24 182 8.0 27.4 0.00 0.00 0.00 73 1013.1
20260504220044 24 259 9.7 27.4 0.00 0.00 0.00 73 1013.2
20260504214544 25 198 8.0 20.9 0.00 0.00 0.00 72 1013.3
20260504213053 25 188 16.1 27.4 0.00 0.00 0.00 70 1013.5
20260504211541 24 183 11.3 25.7 0.00 0.00 0.00 71 1013.6
20260504210046 24 165 4.8 20.9 0.00 0.00 0.00 70 1014.1
20260504204545 24 162 11.3 27.4 0.00 0.00 0.00 71 1014.3
20260504203058 25 209 6.4 29.0 0.00 0.00 0.00 70 1014.2
20260504201541 25 178 8.0 25.7 0.00 0.00 0.00 69 1014.5
20260504200046 24 170 9.7 24.1 0.00 0.00 0.00 69 1014.9
20260504194538 24 225 8.0 29.0 0.00 0.00 0.00 69 1015.1
20260504193044 24 187 11.3 29.0 0.00 0.00 0.00 69 1015.3
20260504191548 24 178 6.4 30.6 0.00 0.00 0.00 70 1015.2
20260504190049 25 225 14.5 29.0 0.00 0.00 0.00 67 1015.6
20260504184540 24 213 11.3 27.4 0.00 0.00 0.00 68 1015.8
20260504183044 24 175 12.9 24.1 0.00 0.00 0.00 67 1015.9
20260504181548 24 160 14.5 33.8 0.00 0.00 0.00 68 1015.8
20260504180046 23 177 17.7 30.6 0.00 0.00 0.00 67 1016.1
20260504174544 24 186 9.7 25.7 0.00 0.00 0.00 66 1016.2
20260504173041 23 160 11.3 27.4 0.00 0.00 0.00 68 1016.4
20260504171545 24 178 4.8 16.1 0.00 0.00 0.00 70 1016.5
20260504081541 10 9 0.0 1.6 0.00 0.00 0.00 95 1017.2